Wahpeton, MN

3:54 AM CDT on July 27, 2017 (GMT -0500)
Stern

Weather History for KBWP - November, 2012

Change the Weather History Date:

Sunday, November 25, 2012

  Actual Average (KFFM) Record (KFFM)
Temperature  
Mean Temperature 21 °F -  
Max Temperature 32 °F 31 °F 58 °F (1984)
Min Temperature 10 °F 16 °F -19 °F (1977)
Degree Days  
Heating Degree Days 44    
Moisture  
Dew Point 17 °F    
Average Humidity 75    
Maximum Humidity 85    
Minimum Humidity 60    
Precipitation  
Precipitation 0.00 in - - ()
Sea Level Pressure  
Sea Level Pressure 30.04 in    
Wind  
Wind Speed 15 mph (NNW)    
Max Wind Speed 23 mph    
Max Gust Speed 29 mph    
Visibility 10 miles    
Events      
Averages and records for this station are not official NWS values.
T = Trace of Precipitation, MM = Missing Value Source: NWS Daily Summary

Daily Weather History Graph

Daily Weather History Graph

Search for Another Location

Airport or City:

Trip Planner

Search our weather history database for the weather conditions in past years. The results will help you decide how hot, cold, wet, or windy it might be!

Date:

Astronomy

Nov. 25, 2012 Rise Set
Actual Time 7:41 AM CST 4:44 PM CST
Civil Twilight 7:08 AM CST 5:18 PM CST
Nautical Twilight 6:31 AM CST 5:55 PM CST
Astronomical Twilight 5:55 AM CST 6:31 PM CST
Moon 3:08 PM CST (11/25) 4:50 AM CST (11/25)
Length of Visible Light 10h 10m
Length of Day
9h 03m
Waxing Gibbous, 93% of the Moon is Illuminated
Nov 25
Waxing Gibbous
Nov 28
Full
Dec 6
Last Quarter
Dec 13
New
Dec 19
First Quarter

Hourly Weather History & Observations

Time (CST) Temp. Windchill Dew Point Humidity Pressure Visibility Wind Dir Wind Speed Gust Speed Precip Events Conditions
12:15 AM 28.4 °F 15.4 °F 23.0 °F 80% 29.89 in 10.0 mi NNW 19.6 mph 26.5 mph N/A   Overcast
12:35 AM 28.4 °F 16.6 °F 23.0 °F 80% 29.90 in 10.0 mi NNW 16.1 mph 27.6 mph N/A   Overcast
12:55 AM 28.4 °F 16.6 °F 23.0 °F 80% 29.91 in 10.0 mi NNW 16.1 mph 21.9 mph N/A   Overcast
1:15 AM 28.4 °F 15.4 °F 23.0 °F 80% 29.91 in 10.0 mi NNW 19.6 mph 25.3 mph N/A   Overcast
1:35 AM 26.6 °F 12.0 °F 21.2 °F 80% 29.91 in 10.0 mi NW 23.0 mph 26.5 mph N/A   Overcast
1:55 AM 26.6 °F 13.8 °F 21.2 °F 80% 29.93 in 10.0 mi NW 17.3 mph - N/A   Overcast
2:15 AM 26.6 °F 13.8 °F 21.2 °F 80% 29.93 in 10.0 mi NW 17.3 mph 24.2 mph N/A   Overcast
2:35 AM 26.6 °F 15.7 °F 21.2 °F 80% 29.94 in 10.0 mi NW 12.7 mph 16.1 mph N/A   Overcast
2:55 AM 26.6 °F 15.7 °F 21.2 °F 80% 29.96 in 10.0 mi NW 12.7 mph - N/A   Overcast
3:15 AM 24.8 °F 13.4 °F 19.4 °F 80% 29.96 in 10.0 mi NW 12.7 mph - N/A   Overcast
3:35 AM 24.8 °F 13.4 °F 19.4 °F 80% 29.96 in 10.0 mi NW 12.7 mph - N/A   Overcast
3:55 AM 24.8 °F 12.9 °F 19.4 °F 80% 29.96 in 10.0 mi NNW 13.8 mph 17.3 mph N/A   Overcast
4:15 AM 24.8 °F 13.4 °F 19.4 °F 80% 29.95 in 10.0 mi NW 12.7 mph 18.4 mph N/A   Overcast
4:35 AM 24.8 °F 12.4 °F 19.4 °F 80% 29.95 in 10.0 mi NNW 15.0 mph 19.6 mph N/A   Overcast
4:55 AM 24.8 °F 14.6 °F 19.4 °F 80% 29.96 in 10.0 mi NNW 10.4 mph - N/A   Overcast
5:15 AM 24.8 °F 15.3 °F 19.4 °F 80% 29.96 in 10.0 mi NNW 9.2 mph - N/A   Overcast
5:35 AM 24.8 °F 16.1 °F 19.4 °F 80% 29.96 in 10.0 mi NNW 8.1 mph - N/A   Overcast
5:55 AM 24.8 °F 16.9 °F 19.4 °F 80% 29.97 in 10.0 mi NNW 6.9 mph - N/A   Overcast
6:15 AM 24.8 °F 17.9 °F 19.4 °F 80% 29.96 in 10.0 mi NW 5.8 mph - N/A   Overcast
6:35 AM 24.8 °F 17.9 °F 19.4 °F 80% 29.96 in 10.0 mi WNW 5.8 mph - N/A   Overcast
6:55 AM 24.8 °F 17.9 °F 19.4 °F 80% 29.96 in 10.0 mi WNW 5.8 mph - N/A   Overcast
7:15 AM 26.6 °F 18.2 °F 19.4 °F 74% 29.96 in 10.0 mi WNW 8.1 mph - N/A   Overcast
7:35 AM 26.6 °F 14.3 °F 19.4 °F 74% 29.98 in 10.0 mi WNW 16.1 mph - N/A   Overcast
7:55 AM 26.6 °F 14.7 °F 19.4 °F 74% 29.98 in 10.0 mi NW 15.0 mph 19.6 mph N/A   Overcast
8:15 AM 26.6 °F 15.2 °F 19.4 °F 74% 29.98 in 10.0 mi NW 13.8 mph - N/A   Overcast
8:35 AM 26.6 °F 16.8 °F 21.2 °F 80% 29.97 in 10.0 mi WNW 10.4 mph - N/A   Overcast
8:55 AM 26.6 °F 16.8 °F 21.2 °F 80% 29.99 in 10.0 mi NW 10.4 mph - N/A   Overcast
9:15 AM 26.6 °F 13.1 °F 19.4 °F 74% 30.01 in 10.0 mi WNW 19.6 mph 25.3 mph N/A   Overcast
9:35 AM 26.6 °F 14.3 °F 19.4 °F 74% 30.00 in 10.0 mi West 16.1 mph - N/A   Overcast
9:55 AM 26.6 °F 14.3 °F 19.4 °F 74% 30.00 in 10.0 mi West 16.1 mph - N/A   Overcast
10:15 AM 26.6 °F 14.3 °F 19.4 °F 74% 30.00 in 10.0 mi West 16.1 mph - N/A   Overcast
10:35 AM 26.6 °F 13.8 °F 21.2 °F 80% 30.00 in 10.0 mi West 17.3 mph 20.7 mph N/A   Overcast
10:55 AM 28.4 °F 17.0 °F 21.2 °F 74% 30.00 in 10.0 mi West 15.0 mph - N/A   Overcast
11:15 AM 30.2 °F 19.8 °F 21.2 °F 69% 30.00 in 10.0 mi West 13.8 mph - N/A   Overcast
11:35 AM 32.0 °F 21.6 °F 23.0 °F 69% 29.99 in 10.0 mi West 15.0 mph - N/A   Scattered Clouds
11:55 AM 32.0 °F 20.1 °F 23.0 °F 69% 29.98 in 10.0 mi WNW 19.6 mph 26.5 mph N/A   Scattered Clouds
12:15 PM 32.0 °F 19.5 °F 23.0 °F 69% 29.98 in 10.0 mi WNW 21.9 mph 25.3 mph N/A   Mostly Cloudy
12:35 PM 32.0 °F 22.1 °F 23.0 °F 69% 29.98 in 10.0 mi WNW 13.8 mph - N/A   Overcast
12:55 PM 32.0 °F 20.8 °F 21.2 °F 64% 29.97 in 10.0 mi NW 17.3 mph - N/A   Overcast
1:15 PM 32.0 °F 19.8 °F 21.2 °F 64% 29.98 in 10.0 mi NW 20.7 mph 28.8 mph N/A   Overcast
1:35 PM 30.2 °F 18.1 °F 23.0 °F 75% 29.99 in 10.0 mi North 18.4 mph 24.2 mph N/A   Overcast
1:55 PM 30.2 °F 18.5 °F 19.4 °F 64% 30.00 in 10.0 mi North 17.3 mph 23.0 mph N/A   Overcast
2:15 PM 30.2 °F 18.9 °F 17.6 °F 60% 30.00 in 10.0 mi NNW 16.1 mph 21.9 mph N/A   Overcast
2:35 PM 30.2 °F 19.3 °F 17.6 °F 60% 30.01 in 10.0 mi NNW 15.0 mph 20.7 mph N/A   Overcast
2:55 PM 30.2 °F 18.9 °F 19.4 °F 64% 30.02 in 10.0 mi North 16.1 mph 20.7 mph N/A   Overcast
3:15 PM 28.4 °F 17.0 °F 19.4 °F 69% 30.03 in 10.0 mi North 15.0 mph - N/A   Overcast
3:35 PM 28.4 °F 18.5 °F 19.4 °F 69% 30.04 in 10.0 mi North 11.5 mph 18.4 mph N/A   Overcast
3:55 PM 26.6 °F 15.2 °F 21.2 °F 80% 30.05 in 10.0 mi North 13.8 mph - N/A   Overcast
4:15 PM 23.0 °F 10.1 °F 17.6 °F 80% 30.06 in 10.0 mi NNE 15.0 mph 19.6 mph N/A   Overcast
4:35 PM 23.0 °F 9.2 °F 14.0 °F 68% 30.07 in 10.0 mi NNE 17.3 mph 23.0 mph N/A   Overcast
4:55 PM 21.2 °F 7.3 °F 14.0 °F 74% 30.08 in 10.0 mi North 16.1 mph 20.7 mph N/A   Overcast
5:15 PM 21.2 °F 8.3 °F 14.0 °F 74% 30.09 in 10.0 mi NNE 13.8 mph - N/A   Overcast
5:35 PM 21.2 °F 8.3 °F 14.0 °F 74% 30.11 in 10.0 mi North 13.8 mph - N/A   Overcast
5:55 PM 19.4 °F 5.5 °F 12.2 °F 74% 30.11 in 10.0 mi NNE 15.0 mph 20.7 mph N/A   Overcast
6:15 PM 19.4 °F 5.5 °F 10.4 °F 68% 30.13 in 10.0 mi NNE 15.0 mph 20.7 mph N/A   Overcast
6:35 PM 19.4 °F 5.5 °F 12.2 °F 74% 30.14 in 10.0 mi North 15.0 mph - N/A   Overcast
6:55 PM 19.4 °F 5.0 °F 10.4 °F 68% 30.15 in 10.0 mi North 16.1 mph - N/A   Overcast
7:15 PM 17.6 °F 3.2 °F 8.6 °F 68% 30.16 in 10.0 mi North 15.0 mph 23.0 mph N/A   Overcast
7:35 PM 17.6 °F 2.7 °F 8.6 °F 68% 30.17 in 10.0 mi North 16.1 mph 21.9 mph N/A   Overcast
7:55 PM 17.6 °F 3.2 °F 10.4 °F 73% 30.18 in 10.0 mi NNE 15.0 mph - N/A   Overcast
8:15 PM 17.6 °F 3.7 °F 10.4 °F 73% 30.19 in 7.0 mi North 13.8 mph 19.6 mph N/A   Overcast
8:35 PM 17.6 °F 2.7 °F 8.6 °F 68% 30.19 in 10.0 mi North 16.1 mph 21.9 mph N/A   Overcast
8:55 PM 17.6 °F 3.2 °F 10.4 °F 73% 30.21 in 10.0 mi North 15.0 mph - N/A   Overcast
9:15 PM 15.8 °F 0.9 °F 10.4 °F 79% 30.22 in 10.0 mi North 15.0 mph - N/A   Overcast
9:35 PM 15.8 °F -0.2 °F 8.6 °F 73% 30.23 in 10.0 mi North 17.3 mph - N/A   Overcast
9:55 PM 14.0 °F -0.8 °F 8.6 °F 79% 30.24 in 10.0 mi NNE 13.8 mph - N/A   Overcast
10:15 PM 14.0 °F -0.8 °F 8.6 °F 79% 30.24 in 10.0 mi North 13.8 mph 19.6 mph N/A   Overcast
10:35 PM 14.0 °F -1.4 °F 8.6 °F 79% 30.25 in 10.0 mi North 15.0 mph - N/A   Overcast
10:55 PM 12.2 °F -1.8 °F 6.8 °F 79% 30.27 in 10.0 mi North 11.5 mph - N/A   Overcast
11:15 PM 12.2 °F 0.7 °F 6.8 °F 79% 30.27 in 10.0 mi North 8.1 mph - N/A   Scattered Clouds
11:35 PM 10.4 °F -3.3 °F 6.8 °F 85% 30.29 in 10.0 mi North 10.4 mph - N/A   Scattered Clouds
11:55 PM 10.4 °F -0.4 °F 5.0 °F 79% 30.30 in 10.0 mi North 6.9 mph - N/A   Scattered Clouds